Location: Krakow
(50.0830°N, 19.9170°E)
Time: 20:39:25
(UTC+02:00)

DX 1 - Visible Passes

Search period start: 30 May 2024 00:00
Search period end: 09 June 2024 00:00
Orbit: 608 x 620 km, 98.3° (Epoch: 30 May)

Date Brightness Start Highest point End Pass type
(mag) Time Alt. Az. Time Alt. Az. Time Alt. Az.
30 May ? 01:32:35 10° N 01:36:36 40° WNW 01:38:44 23° WSW visible
31 May ? 00:12:08 10° NNE 00:16:04 34° E 00:17:21 28° SE visible
31 May ? 01:48:13 10° N 01:51:57 29° WNW 01:54:24 17° WSW visible
01 Jun ? 00:27:25 10° NNE 00:31:36 48° E 00:33:01 34° SSE visible
01 Jun ? 02:03:57 10° N 02:07:16 22° WNW 02:10:03 12° WSW visible
02 Jun ? 00:42:47 10° NNE 00:47:05 68° ESE 00:48:40 37° S visible
02 Jun ? 02:19:47 10° NNW 02:22:33 17° WNW 02:25:18 10° W visible
02 Jun ? 23:24:22 10° ENE 23:25:57 12° E 23:27:16 11° ESE visible
03 Jun ? 00:58:13 10° NNE 01:02:32 86° WNW 01:04:18 35° SSW visible
03 Jun ? 02:35:52 10° NNW 02:37:48 13° NW 02:39:43 10° W visible
03 Jun ? 23:38:50 10° NE 23:41:35 16° E 23:42:54 15° ESE visible
04 Jun ? 01:13:42 10° N 01:17:56 61° WNW 01:19:57 29° SW visible
04 Jun ? 23:53:45 10° NE 23:57:10 23° E 23:58:32 19° ESE visible
05 Jun ? 01:29:14 10° N 01:33:18 44° WNW 01:35:35 23° SW visible
06 Jun ? 00:08:53 10° NNE 00:12:42 31° E 00:14:09 25° SE visible
06 Jun ? 01:44:49 10° N 01:48:39 32° WNW 01:51:12 17° WSW visible
07 Jun ? 00:24:07 10° NNE 00:28:13 43° E 00:29:47 30° SSE visible
07 Jun ? 02:00:29 10° N 02:03:57 24° WNW 02:06:49 13° WSW visible
08 Jun ? 00:39:26 10° NNE 00:43:41 61° ESE 00:45:24 34° S visible
08 Jun ? 02:16:16 10° NNW 02:19:13 18° WNW 02:22:09 10° WSW visible
08 Jun ? 23:21:39 10° ENE 23:22:29 10° E 23:23:19 10° E visible
